Location: Vale
(35.4830°N, 81.3830°W)
Time: 22:15:32
(UTC-04:00)

Amateur Radio Satellites - All Passes

Search period start: 22 October 2014 21:45
Search period end: 23 October 2014 21:45
Location: Vale, 35.4830°N, 81.3830°W

Satellite Date Start Highest point End Downlink Frequencies (MHz)
Time Altitude Azimuth
STRAND 1 22 Oct 21:47:14 21:49:52 14° 297° (WNW) 21:52:29 ?
Oscar 11 22 Oct 21:49:14 21:53:03 31° 72° (ENE) 21:56:51 145.825 FM, Beacon 2401.500 USB
SO-50 22 Oct 21:49:20 21:51:32 13° 44° (NE) 21:53:45 436.795 FM
KITSAT 1 22 Oct 21:57:48 22:05:24 42° 54° (NE) 22:12:56 435.175 FM
ZACube-1 22 Oct 22:31:17 22:35:35 40° 73° (ENE) 22:39:50 437.345 MHz
HO-68 22 Oct 22:34:32 22:40:59 36° 262° (W) 22:47:29 435.675 MHz FM
UKube-1 22 Oct 22:41:05 22:45:19 53° 259° (W) 22:49:35 145.840 MHz, 145.915 MHz
RS-15 22 Oct 22:47:28 22:58:15 62° 112° (ESE) 23:08:53 29.354 - 29.394 USB, Beacon 29.352 USB
FUNcube-1 22 Oct 23:16:18 23:20:52 63° 259° (W) 23:25:24 145.950 - 145.970 MHz USB
Oscar 11 22 Oct 23:26:09 23:29:14 19° 265° (W) 23:32:19 145.825 FM, Beacon 2401.500 USB
UOSAT-12 22 Oct 23:26:46 23:27:45 11° 42° (NE) 23:28:45 437.025 FM, 437.400 FM
SO-50 22 Oct 23:27:50 23:32:42 84° 242° (WSW) 23:37:35 436.795 FM
KITSAT 1 22 Oct 23:53:20 00:00:41 40° 252° (WSW) 00:08:00 435.175 FM
ZACube-1 23 Oct 00:09:07 00:12:04 17° 266° (W) 00:15:00 437.345 MHz
MaSat-1 23 Oct 00:29:34 00:33:46 53° 111° (ESE) 00:37:39 437.345 MHz
RS-15 23 Oct 01:01:13 01:11:05 37° 314° (NW) 01:20:59 29.354 - 29.394 USB, Beacon 29.352 USB
UOSAT-12 23 Oct 01:03:55 01:08:39 82° 60° (ENE) 01:13:16 437.025 FM, 437.400 FM
MaSat-1 23 Oct 02:08:02 02:09:39 12° 303° (WNW) 02:11:13 437.345 MHz
Oscar 19 23 Oct 02:20:50 02:25:23 32° 97° (E) 02:29:55 437.125 CW, 437.150 USB
AO-27 23 Oct 02:34:12 02:37:30 17° 93° (E) 02:40:48 436.795 MHz FM
Oscar 16 23 Oct 03:05:47 03:10:56 86° 284° (WNW) 03:16:03 437.025 USB, Beacon 2401.1428
JAS-1B 23 Oct 03:06:36 03:13:20 74° 103° (ESE) 03:21:26 435.800 - 435.900 CW/SSB
AO-Echo 23 Oct 03:17:50 03:23:07 64° 101° (E) 03:28:22 ?
Uribyol 2 23 Oct 03:21:35 03:26:41 54° 101° (E) 03:31:45 436.500 FM
RS-15 23 Oct 03:23:28 03:28:08 13° 347° (NNW) 03:32:50 29.354 - 29.394 USB, Beacon 29.352 USB
PCSat 23 Oct 03:25:02 03:26:51 12° 102° (ESE) 03:28:40 145.825 MHz
ITAMSAT 1 23 Oct 03:27:01 03:32:11 58° 101° (E) 03:37:17 435.822 SSB
Gurwin Techsat 1B 23 Oct 03:34:43 03:39:33 35° 98° (E) 03:44:21 435.225 FM
TMSAT-1 23 Oct 03:47:22 03:52:09 34° 97° (E) 03:56:54 436.925 FM
Oscar 19 23 Oct 04:00:23 04:04:33 26° 292° (WNW) 04:08:42 437.125 CW, 437.150 USB
AO-27 23 Oct 04:12:12 04:17:15 50° 288° (WNW) 04:22:15 436.795 MHz FM
Sapphire 23 Oct 04:41:26 04:46:45 63° 113° (ESE) 04:52:06 437.095 MHz 1200 baud AX-25 AFSK
AO-Echo 23 Oct 04:58:26 05:01:17 15° 296° (WNW) 05:04:08 ?
JAS-1B 23 Oct 04:59:13 05:03:31 18° 296° (WNW) 05:08:15 435.800 - 435.900 CW/SSB
Uosat F 23 Oct 05:01:45 05:05:46 23° 96° (E) 05:09:45 435.120 FM
Uribyol 2 23 Oct 05:02:30 05:05:40 17° 296° (WNW) 05:08:49 436.500 FM
PCSat 23 Oct 05:04:08 05:09:31 75° 297° (WNW) 05:14:58 145.825 MHz
ITAMSAT 1 23 Oct 05:08:07 05:11:08 16° 296° (WNW) 05:14:09 435.822 SSB
Gurwin Techsat 1B 23 Oct 05:15:00 05:19:18 26° 292° (WNW) 05:23:35 435.225 FM
JAS-2 23 Oct 05:19:46 05:23:41 14° 88° (E) 05:27:34 435.800 - 435.900 CW/SSB, 435.910 FM
AO-7 23 Oct 05:27:19 05:35:30 58° 103° (ESE) 05:43:39 29.400 - 29.500 MHz
TMSAT-1 23 Oct 05:27:32 05:31:53 26° 292° (WNW) 05:36:12 436.925 FM
OPAL 23 Oct 05:37:39 05:42:47 71° 73° (ENE) 05:47:53 ?
RS-15 23 Oct 05:40:38 05:47:24 17° 26° (NNE) 05:54:16 29.354 - 29.394 USB, Beacon 29.352 USB
Sapphire 23 Oct 06:27:01 06:30:36 18° 310° (NW) 06:34:13 437.095 MHz 1200 baud AX-25 AFSK
Uosat F 23 Oct 06:40:01 06:44:33 34° 290° (WNW) 06:49:03 435.120 FM
PCSat 23 Oct 06:52:34 06:53:51 11° 316° (NW) 06:55:08 145.825 MHz
JAS-2 23 Oct 07:01:37 07:09:27 86° 104° (ESE) 07:17:16 435.800 - 435.900 CW/SSB, 435.910 FM
STRAND 1 23 Oct 07:19:00 07:24:03 66° 74° (ENE) 07:29:10 ?
OPAL 23 Oct 07:20:26 07:22:03 11° 266° (W) 07:23:40 ?
AO-7 23 Oct 07:20:56 07:27:46 30° 300° (WNW) 07:34:37 29.400 - 29.500 MHz
Hamsat 23 Oct 07:30:59 07:35:07 59° 284° (WNW) 07:39:15 145.90 MHz
RS-15 23 Oct 07:52:06 08:03:03 55° 54° (NE) 08:14:25 29.354 - 29.394 USB, Beacon 29.352 USB
Saudisat 1A 23 Oct 08:25:48 08:30:08 69° 117° (ESE) 08:34:31 436.775 MHz
SO-67 23 Oct 08:29:41 08:33:08 88° 102° (ESE) 08:36:35 435.3500 MHz FM
PANSAT 23 Oct 08:36:21 08:38:57 18° 165° (SSE) 08:41:33 not established
JAS-2 23 Oct 08:48:29 08:53:30 19° 299° (WNW) 08:58:34 435.800 - 435.900 CW/SSB, 435.910 FM
STRAND 1 23 Oct 09:01:47 09:03:39 12° 269° (W) 09:05:31 ?
HO-68 23 Oct 10:04:41 10:11:42 53° 101° (E) 10:18:39 435.675 MHz FM
RS-15 23 Oct 10:04:56 10:15:02 40° 253° (WSW) 10:25:33 29.354 - 29.394 USB, Beacon 29.352 USB
Saudisat 1A 23 Oct 10:08:10 10:10:09 13° 314° (NW) 10:12:10 436.775 MHz
PANSAT 23 Oct 10:15:19 10:18:37 28° 177° (S) 10:21:55 not established
MaSat-1 23 Oct 10:19:19 10:21:42 32° 63° (ENE) 10:23:55 437.345 MHz
UKube-1 23 Oct 10:32:27 10:36:21 31° 98° (E) 10:40:13 145.840 MHz, 145.915 MHz
FUNcube-1 23 Oct 11:09:03 11:12:47 30° 97° (E) 11:16:27 145.950 - 145.970 MHz USB
Oscar 11 23 Oct 11:15:15 11:19:34 84° 283° (WNW) 11:23:52 145.825 FM, Beacon 2401.500 USB
HO-68 23 Oct 11:53:09 11:58:58 27° 297° (WNW) 12:04:46 435.675 MHz FM
PANSAT 23 Oct 11:55:15 11:58:20 23° 190° (S) 12:01:25 not established
ZACube-1 23 Oct 11:59:46 12:03:59 62° 285° (WNW) 12:08:05 437.345 MHz
UKube-1 23 Oct 12:09:09 12:12:18 20° 292° (WNW) 12:15:26 145.840 MHz, 145.915 MHz
KITSAT 1 23 Oct 12:22:37 12:30:04 43° 109° (ESE) 12:37:32 435.175 FM
ISS 23 Oct 12:24:06 12:25:16 12° 126° (SE) 12:26:26 145.800 FM
Oscar 16 23 Oct 12:44:51 12:46:11 11° 62° (ENE) 12:47:31 437.025 USB, Beacon 2401.1428
FUNcube-1 23 Oct 12:45:58 12:48:56 19° 292° (WNW) 12:51:51 145.950 - 145.970 MHz USB
Sapphire 23 Oct 13:32:53 13:37:29 27° 54° (NE) 13:42:03 437.095 MHz 1200 baud AX-25 AFSK
Oscar 19 23 Oct 13:34:48 13:39:26 35° 70° (ENE) 13:44:04 437.125 CW, 437.150 USB
PANSAT 23 Oct 13:37:08 13:37:53 10° 202° (SSW) 13:38:37 not established
SO-50 23 Oct 13:39:49 13:44:13 65° 117° (ESE) 13:48:46 436.795 FM
AO-27 23 Oct 13:49:32 13:53:14 20° 66° (ENE) 13:56:57 436.795 MHz FM
JAS-1B 23 Oct 13:50:34 13:56:18 43° 71° (ENE) 14:01:37 435.800 - 435.900 CW/SSB
PCSat 23 Oct 13:55:14 14:00:26 45° 59° (ENE) 14:05:36 145.825 MHz
ISS 23 Oct 13:58:18 14:01:34 55° 320° (NW) 14:04:52 145.800 FM
Oscar 10/S400 23 Oct 14:08:17 14:27:58 46° 154° (SSE) 14:50:02 145.825 - 145.975 CW/USB, Beacon 145.810 USB
KITSAT 1 23 Oct 14:17:58 14:25:26 40° 307° (NW) 14:32:57 435.175 FM
Oscar 16 23 Oct 14:19:38 14:24:48 81° 257° (WSW) 14:29:59 437.025 USB, Beacon 2401.1428
AO-Echo 23 Oct 14:27:51 14:32:35 58° 74° (ENE) 14:37:29 ?
Uribyol 2 23 Oct 14:36:21 14:41:29 61° 74° (ENE) 14:46:38 436.500 FM
AO-7 23 Oct 14:38:02 14:39:49 11° 49° (NE) 14:41:36 29.400 - 29.500 MHz
ITAMSAT 1 23 Oct 14:41:58 14:47:06 65° 74° (ENE) 14:52:16 435.822 SSB
Gurwin Techsat 1B 23 Oct 14:52:49 14:57:45 41° 71° (ENE) 15:02:43 435.225 FM
TMSAT-1 23 Oct 15:05:09 15:10:02 39° 71° (ENE) 15:14:56 436.925 FM
UOSAT-12 23 Oct 15:12:03 15:16:30 50° 115° (ESE) 15:21:02 437.025 FM, 437.400 FM
Oscar 19 23 Oct 15:14:42 15:18:47 24° 265° (W) 15:22:53 437.125 CW, 437.150 USB
Sapphire 23 Oct 15:15:59 15:20:57 37° 251° (WSW) 15:25:52 437.095 MHz 1200 baud AX-25 AFSK
SO-50 23 Oct 15:22:49 15:25:14 14° 315° (NW) 15:27:42 436.795 FM
AO-27 23 Oct 15:27:26 15:32:23 44° 261° (W) 15:37:22 436.795 MHz FM
ISS 23 Oct 15:38:23 15:38:53 10° 338° (NNW) 15:39:22 145.800 FM
PCSat 23 Oct 15:39:31 15:43:28 21° 254° (WSW) 15:47:24 145.825 MHz
JAS-1B 23 Oct 15:42:36 15:47:07 21° 264° (W) 15:51:23 435.800 - 435.900 CW/SSB
AO-Echo 23 Oct 16:09:40 16:11:44 13° 269° (W) 16:13:50 ?
Uosat F 23 Oct 16:12:19 16:16:18 24° 68° (ENE) 16:20:19 435.120 FM
Uribyol 2 23 Oct 16:18:46 16:21:18 14° 268° (W) 16:23:51 436.500 FM
AO-7 23 Oct 16:22:49 16:30:52 60° 68° (ENE) 16:38:57 29.400 - 29.500 MHz
ITAMSAT 1 23 Oct 16:24:46 16:26:58 13° 268° (W) 16:29:11 435.822 SSB
Gurwin Techsat 1B 23 Oct 16:33:53 16:37:50 21° 266° (W) 16:41:47 435.225 FM
TMSAT-1 23 Oct 16:46:00 16:50:01 22° 265° (W) 16:54:05 436.925 FM
UOSAT-12 23 Oct 16:53:43 16:56:55 18° 312° (NW) 17:00:10 437.025 FM, 437.400 FM
Saudisat 1A 23 Oct 16:55:45 16:59:22 24° 52° (NE) 17:02:58 436.775 MHz
JAS-2 23 Oct 17:11:58 17:16:39 25° 64° (ENE) 17:21:46 435.800 - 435.900 CW/SSB, 435.910 FM
Uosat F 23 Oct 17:50:23 17:54:53 33° 262° (W) 17:59:25 435.120 FM
OPAL 23 Oct 17:51:29 17:55:22 23° 97° (E) 17:59:13 ?
AO-7 23 Oct 18:17:21 18:23:59 27° 264° (W) 18:30:40 29.400 - 29.500 MHz
Hamsat 23 Oct 18:20:57 18:25:08 64° 76° (ENE) 18:29:17 145.90 MHz
Saudisat 1A 23 Oct 18:35:02 18:38:55 31° 247° (WSW) 18:42:47 436.775 MHz
JAS-2 23 Oct 18:55:54 19:01:18 44° 263° (W) 19:07:25 435.800 - 435.900 CW/SSB, 435.910 FM
SO-67 23 Oct 19:00:21 19:02:36 17° 71° (ENE) 19:04:51 435.3500 MHz FM
OPAL 23 Oct 19:29:49 19:34:16 34° 292° (WNW) 19:38:41 ?
STRAND 1 23 Oct 19:33:12 19:37:37 28° 97° (E) 19:42:01 ?
KITSAT 1 23 Oct 20:20:26 20:24:31 14° 36° (NE) 20:28:35 435.175 FM
ISS 23 Oct 20:29:28 20:32:39 41° 38° (NE) 20:35:50 145.800 FM
HO-68 23 Oct 20:30:43 20:36:39 29° 63° (ENE) 20:42:36 435.675 MHz FM
SO-67 23 Oct 20:32:45 20:35:24 21° 264° (W) 20:38:03 435.3500 MHz FM
STRAND 1 23 Oct 21:12:18 21:16:42 29° 291° (WNW) 21:21:05 ?
UKube-1 23 Oct 21:25:41 21:28:48 20° 68° (ENE) 21:31:56 145.840 MHz, 145.915 MHz
